• In Deutschland
  • Länderverzeichnis
  • Für 7 Tage
  • Wassertemperatur
  • Satellitenkarten
  • Wetterkarte
  • Widgets
  • user-avatar
    Anmelden

    Stündliche Wetter Passau

    Heute, 19 August, Sonntag

    Zeit Temperatur Niederschläge Wind Luftdruck Luftfeuchtigkeit
    00:00 +20°C° 0,3 mm 1 m/S 732 mmHg 82%
    01:00 +20°C° 0 mm 1 m/S 732 mmHg 85%
    02:00 +20°C° 0,2 mm 1 m/S 732 mmHg 86%
    03:00 +19°C° 0,2 mm 1 m/S 732 mmHg 88%
    04:00 +19°C° 0,2 mm 1 m/S 732 mmHg 89%
    05:00 +18°C° 0 mm 0 m/S 732 mmHg 87%
    06:00 +19°C° 0 mm 0 m/S 732 mmHg 84%
    07:00 +20°C° 0 mm 0 m/S 732 mmHg 82%
    08:00 +22°C° 0,2 mm 0 m/S 732 mmHg 75%
    09:00 +24°C° 0,2 mm 0 m/S 732 mmHg 68%
    10:00 +26°C° 0,2 mm 0 m/S 732 mmHg 61%
    11:00 +27°C° 0,2 mm 0 m/S 732 mmHg 56%
    12:00 +30°C° 0,2 mm 1 m/S 732 mmHg 51%
    13:00 +31°C° 0,2 mm 1 m/S 732 mmHg 45%
    14:00 +31°C° 0 mm 1 m/S 732 mmHg 45%
    15:00 +31°C° 0 mm 1 m/S 731 mmHg 45%
    16:00 +30°C° 0 mm 1 m/S 731 mmHg 45%
    17:00 +28°C° 0 mm 1 m/S 731 mmHg 52%
    18:00 +24°C° 0 mm 0 m/S 731 mmHg 58%
    19:00 +22°C° 0 mm 0 m/S 731 mmHg 64%
    20:00 +21°C° 0 mm 0 m/S 731 mmHg 66%
    21:00 +22°C° 0 mm 1 m/S 731 mmHg 68%
    22:00 +22°C° 0 mm 1 m/S 731 mmHg 69%
    23:00 +21°C° 0 mm 1 m/S 731 mmHg 72%

    Morgen, 20 August, Montag

    Zeit Temperatur Niederschläge Wind Luftdruck Luftfeuchtigkeit
    00:00 +20°C° 0 mm 1 m/S 731 mmHg 75%
    01:00 +20°C° 0 mm 1 m/S 731 mmHg 78%
    02:00 +20°C° 0 mm 1 m/S 731 mmHg 80%
    03:00 +19°C° 0 mm 1 m/S 731 mmHg 83%
    04:00 +19°C° 0 mm 1 m/S 731 mmHg 85%
    05:00 +20°C° 0 mm 1 m/S 731 mmHg 83%
    06:00 +20°C° 0 mm 1 m/S 731 mmHg 82%
    07:00 +21°C° 0 mm 1 m/S 731 mmHg 80%
    08:00 +23°C° 0 mm 1 m/S 731 mmHg 74%
    09:00 +25°C° 0 mm 1 m/S 732 mmHg 68%
    10:00 +27°C° 0 mm 2 m/S 732 mmHg 62%
    11:00 +27°C° 0,3 mm 2 m/S 731 mmHg 60%
    12:00 +28°C° 0,3 mm 2 m/S 731 mmHg 57%
    13:00 +29°C° 0,3 mm 2 m/S 731 mmHg 55%
    14:00 +29°C° 0,1 mm 2 m/S 731 mmHg 54%
    15:00 +29°C° 0,1 mm 2 m/S 731 mmHg 54%
    16:00 +29°C° 0,1 mm 2 m/S 731 mmHg 54%
    17:00 +27°C° 0 mm 2 m/S 731 mmHg 61%
    18:00 +25°C° 0 mm 1 m/S 731 mmHg 68%
    19:00 +23°C° 0 mm 1 m/S 731 mmHg 76%
    20:00 +23°C° 0 mm 1 m/S 731 mmHg 79%
    21:00 +22°C° 0 mm 1 m/S 731 mmHg 82%
    22:00 +21°C° 0 mm 1 m/S 732 mmHg 85%
    23:00 +20°C° 0 mm 1 m/S 732 mmHg 87%

    übermorgen, 21 August, Dienstag

    Zeit Temperatur Niederschläge Wind Luftdruck Luftfeuchtigkeit
    00:00 +20°C° 0 mm 1 m/S 732 mmHg 89%
    01:00 +19°C° 0 mm 1 m/S 732 mmHg 91%
    02:00 +19°C° 0 mm 1 m/S 732 mmHg 92%
    03:00 +19°C° 0 mm 1 m/S 732 mmHg 93%
    04:00 +16°C° 0 mm 0 m/S 732 mmHg 94%
    05:00 +17°C° 0 mm 0 m/S 732 mmHg 92%
    06:00 +18°C° 0 mm 0 m/S 732 mmHg 89%
    07:00 +19°C° 0 mm 0 m/S 732 mmHg 86%
    08:00 +21°C° 0 mm 0 m/S 732 mmHg 80%
    09:00 +23°C° 0 mm 0 m/S 733 mmHg 74%
    10:00 +24°C° 0 mm 0 m/S 733 mmHg 68%
    11:00 +25°C° 0,2 mm 0 m/S 732 mmHg 65%
    12:00 +26°C° 0,2 mm 0 m/S 732 mmHg 61%
    13:00 +29°C° 0,2 mm 1 m/S 732 mmHg 58%
    14:00 +29°C° 0,1 mm 1 m/S 732 mmHg 58%
    15:00 +29°C° 0,1 mm 1 m/S 731 mmHg 58%
    16:00 +29°C° 0,1 mm 1 m/S 731 mmHg 58%
    17:00 +27°C° 0,1 mm 1 m/S 731 mmHg 65%
    18:00 +25°C° 0,1 mm 2 m/S 731 mmHg 72%
    19:00 +23°C° 0,1 mm 2 m/S 731 mmHg 79%
    20:00 +23°C° 0 mm 2 m/S 731 mmHg 82%
    21:00 +21°C° 0 mm 2 m/S 731 mmHg 85%
    22:00 +21°C° 0 mm 1 m/S 731 mmHg 88%
    23:00 +20°C° 0 mm 1 m/S 731 mmHg 89%

    22 August, Mittwoch

    Zeit Temperatur Niederschläge Wind Luftdruck Luftfeuchtigkeit
    00:00 +20°C° 0 mm 1 m/S 731 mmHg 90%
    01:00 +19°C° 0 mm 1 m/S 731 mmHg 91%
    02:00 +19°C° 0 mm 1 m/S 731 mmHg 92%
    03:00 +19°C° 0 mm 1 m/S 731 mmHg 93%
    04:00 +18°C° 0 mm 1 m/S 731 mmHg 93%
    05:00 +19°C° 0 mm 1 m/S 731 mmHg 90%
    06:00 +20°C° 0 mm 1 m/S 731 mmHg 87%
    07:00 +21°C° 0 mm 1 m/S 731 mmHg 84%
    08:00 +23°C° 0 mm 1 m/S 731 mmHg 76%
    09:00 +25°C° 0 mm 1 m/S 731 mmHg 69%
    10:00 +27°C° 0 mm 1 m/S 731 mmHg 61%
    11:00 +28°C° 0 mm 1 m/S 731 mmHg 58%
    12:00 +29°C° 0 mm 1 m/S 730 mmHg 54%
    13:00 +30°C° 0 mm 1 m/S 730 mmHg 51%
    14:00 +30°C° 0 mm 1 m/S 730 mmHg 51%
    15:00 +30°C° 0 mm 1 m/S 730 mmHg 51%
    16:00 +30°C° 0 mm 1 m/S 729 mmHg 51%
    17:00 +28°C° 0,1 mm 1 m/S 729 mmHg 59%
    18:00 +26°C° 0,1 mm 1 m/S 729 mmHg 67%
    19:00 +22°C° 0,1 mm 0 m/S 729 mmHg 75%
    20:00 +22°C° 0,2 mm 0 m/S 729 mmHg 77%
    21:00 +23°C° 0,2 mm 1 m/S 730 mmHg 80%
    22:00 +22°C° 0,2 mm 1 m/S 730 mmHg 82%
    23:00 +22°C° 0,6 mm 1 m/S 730 mmHg 84%

    23 August, Donnerstag

    Zeit Temperatur Niederschläge Wind Luftdruck Luftfeuchtigkeit
    00:00 +21°C° 0,6 mm 1 m/S 729 mmHg 86%
    01:00 +19°C° 0,6 mm 0 m/S 729 mmHg 88%
    02:00 +19°C° 0,1 mm 0 m/S 729 mmHg 89%
    03:00 +18°C° 0,1 mm 0 m/S 729 mmHg 90%
    04:00 +18°C° 0,1 mm 0 m/S 729 mmHg 91%
    05:00 +19°C° 0,5 mm 0 m/S 729 mmHg 90%
    06:00 +19°C° 0,5 mm 0 m/S 729 mmHg 89%
    07:00 +20°C° 0,5 mm 0 m/S 729 mmHg 88%
    08:00 +23°C° 0,4 mm 1 m/S 729 mmHg 84%
    09:00 +24°C° 0,4 mm 1 m/S 729 mmHg 81%
    10:00 +25°C° 0,4 mm 1 m/S 729 mmHg 77%
    11:00 +27°C° 0,4 mm 1 m/S 728 mmHg 72%
    12:00 +28°C° 0,4 mm 1 m/S 728 mmHg 66%
    13:00 +29°C° 0,4 mm 1 m/S 728 mmHg 61%
    14:00 +29°C° 0,3 mm 1 m/S 727 mmHg 60%
    15:00 +27°C° 0,3 mm 0 m/S 727 mmHg 60%
    16:00 +27°C° 0,3 mm 0 m/S 727 mmHg 59%
    17:00 +25°C° 1 mm 0 m/S 727 mmHg 66%
    18:00 +24°C° 1 mm 0 m/S 727 mmHg 73%
    19:00 +22°C° 1 mm 0 m/S 727 mmHg 80%
    20:00 +23°C° 1 mm 1 m/S 727 mmHg 82%
    21:00 +22°C° 1 mm 1 m/S 727 mmHg 85%
    22:00 +22°C° 1 mm 1 m/S 727 mmHg 88%
    23:00 +21°C° 0,1 mm 1 m/S 726 mmHg 90%

    24 August, Freitag

    Zeit Temperatur Niederschläge Wind Luftdruck Luftfeuchtigkeit
    00:00 +21°C° 0,1 mm 1 m/S 726 mmHg 91%
    01:00 +21°C° 0,1 mm 1 m/S 726 mmHg 92%
    02:00 +20°C° 0,3 mm 1 m/S 726 mmHg 93%
    03:00 +20°C° 0,3 mm 1 m/S 725 mmHg 93%
    04:00 +20°C° 0,3 mm 1 m/S 725 mmHg 94%
    05:00 +20°C° 0,3 mm 1 m/S 725 mmHg 93%
    06:00 +21°C° 0,3 mm 1 m/S 725 mmHg 92%
    07:00 +21°C° 0,3 mm 1 m/S 725 mmHg 91%
    08:00 +23°C° 0,2 mm 1 m/S 725 mmHg 85%
    09:00 +24°C° 0,2 mm 1 m/S 724 mmHg 79%
    10:00 +25°C° 0,2 mm 1 m/S 724 mmHg 73%
    11:00 +26°C° 0,2 mm 1 m/S 724 mmHg 68%
    12:00 +28°C° 0,2 mm 1 m/S 723 mmHg 63%
    13:00 +29°C° 0,2 mm 1 m/S 723 mmHg 57%
    14:00 +28°C° 0,7 mm 1 m/S 723 mmHg 60%
    15:00 +28°C° 0,7 mm 1 m/S 722 mmHg 63%
    16:00 +27°C° 0,7 mm 1 m/S 722 mmHg 65%
    17:00 +25°C° 1,3 mm 2 m/S 722 mmHg 73%
    18:00 +23°C° 1,3 mm 2 m/S 722 mmHg 80%
    19:00 +20°C° 1,3 mm 3 m/S 722 mmHg 88%
    20:00 +19°C° 1,1 mm 3 m/S 723 mmHg 90%
    21:00 +19°C° 1,1 mm 2 m/S 723 mmHg 93%
    22:00 +18°C° 1,1 mm 2 m/S 723 mmHg 96%
    23:00 +18°C° 0,7 mm 2 m/S 723 mmHg 96%
    Mehr zeigen